Weather History for KROX - November, 2012

Change the Weather History Date:

Thursday, November 8, 2012

  Actual Average Record
Temperature  
Mean Temperature 36 °F -  
Max Temperature 42 °F 37 °F 68 °F (1999)
Min Temperature 30 °F 19 °F -13 °F (1979)
Degree Days  
Heating Degree Days 29    
Moisture  
Dew Point 32 °F    
Average Humidity 81    
Maximum Humidity 87    
Minimum Humidity 75    
Precipitation  
Precipitation 0.05 in - - ()
Sea Level Pressure  
Sea Level Pressure 29.94 in    
Wind  
Wind Speed 13 mph (NW)    
Max Wind Speed 22 mph    
Max Gust Speed 29 mph    
Visibility 10 miles    
Events Rain    
Averages and records for this station are not official NWS values.
T = Trace of Precipitation, MM = Missing Value Source: NWS Daily Summary

Daily Weather History Graph

Daily Weather History Graph

Search for Another Location

Airport or City:

Trip Planner

Search our weather history database for the weather conditions in past years. The results will help you decide how hot, cold, wet, or windy it might be!

Date:

Astronomy

Nov. 08, 2012 Rise Set
Actual Time 7:21 AM CST 4:50 PM CST
Civil Twilight 6:47 AM CST 5:24 PM CST
Nautical Twilight 6:09 AM CST 6:02 PM CST
Astronomical Twilight 5:32 AM CST 6:39 PM CST
Moon 12:49 AM CST (11/8) 1:58 PM CST (11/8)
Length of Visible Light 10h 36m
Length of Day
9h 29m
Waning Crescent, 32% of the Moon is Illuminated
Nov 8
Waning Crescent
Nov 13
New
Nov 20
First Quarter
Nov 28
Full
Dec 6
Last Quarter

Hourly Weather History & Observations

Time (CST) Temp. Windchill Dew Point Humidity Pressure Visibility Wind Dir Wind Speed Gust Speed Precip Events Conditions
12:14 AM 39.2 °F 32.0 °F 33.8 °F 81% 29.79 in 10.0 mi SSE 11.5 mph - N/A   Clear
12:34 AM 39.2 °F 32.0 °F 33.8 °F 81% 29.78 in 10.0 mi SSE 11.5 mph - N/A   Scattered Clouds
12:54 AM 39.2 °F 32.5 °F 33.8 °F 81% 29.77 in 10.0 mi SSE 10.4 mph - N/A Rain Light Rain
1:14 AM 39.2 °F 31.6 °F 33.8 °F 81% 29.77 in 10.0 mi SSE 12.7 mph - N/A   Scattered Clouds
1:34 AM 41.0 °F 34.3 °F 35.6 °F 81% 29.76 in 10.0 mi South 11.5 mph - N/A   Scattered Clouds
1:54 AM 39.2 °F 32.5 °F 33.8 °F 81% 29.77 in 10.0 mi South 10.4 mph - N/A Rain Light Rain
2:15 AM 39.2 °F 33.0 °F 33.8 °F 81% 29.76 in 10.0 mi South 9.2 mph - N/A   Clear
2:34 AM 39.2 °F 31.2 °F 33.8 °F 81% 29.74 in 10.0 mi South 13.8 mph - N/A   Clear
2:54 AM 39.2 °F 30.2 °F 33.8 °F 81% 29.72 in 10.0 mi South 17.3 mph - N/A   Scattered Clouds
3:14 AM 41.0 °F 33.5 °F 33.8 °F 76% 29.72 in 10.0 mi South 13.8 mph - N/A   Clear
3:34 AM 41.0 °F 33.9 °F 33.8 °F 76% 29.73 in 10.0 mi South 12.7 mph - N/A   Clear
3:54 AM 41.0 °F 33.1 °F 35.6 °F 81% 29.74 in 10.0 mi SSW 15.0 mph - N/A   Scattered Clouds
4:14 AM 41.0 °F 33.9 °F 35.6 °F 81% 29.75 in 10.0 mi SSW 12.7 mph - N/A   Scattered Clouds
4:34 AM 42.8 °F 36.2 °F 35.6 °F 76% 29.74 in 10.0 mi SSW 12.7 mph 18.4 mph N/A   Scattered Clouds
4:54 AM 42.8 °F 35.1 °F 35.6 °F 76% 29.73 in 10.0 mi SSW 16.1 mph - N/A   Light Drizzle
5:14 AM 41.0 °F 32.2 °F 35.6 °F 81% 29.72 in 10.0 mi SSW 18.4 mph - N/A Rain Light Rain
5:34 AM 39.2 °F 31.6 °F 35.6 °F 87% 29.70 in 10.0 mi South 12.7 mph - 0.03 in Rain Rain
5:54 AM 39.2 °F 31.2 °F 35.6 °F 87% 29.74 in 10.0 mi SW 13.8 mph 19.6 mph 0.05 in Rain Light Rain
6:14 AM 39.2 °F 31.6 °F 35.6 °F 87% 29.75 in 10.0 mi SW 12.7 mph - N/A   Scattered Clouds
6:34 AM 39.2 °F 31.6 °F 33.8 °F 81% 29.76 in 10.0 mi SW 12.7 mph - N/A   Scattered Clouds
6:54 AM 37.4 °F 28.9 °F 33.8 °F 87% 29.76 in 10.0 mi SW 13.8 mph - N/A   Clear
7:14 AM 37.4 °F 28.5 °F 33.8 °F 87% 29.77 in 10.0 mi SW 15.0 mph 18.4 mph N/A   Clear
7:34 AM 39.2 °F 30.8 °F 33.8 °F 81% 29.78 in 10.0 mi SW 15.0 mph 19.6 mph N/A   Clear
7:54 AM 39.2 °F 31.6 °F 33.8 °F 81% 29.79 in 10.0 mi WSW 12.7 mph 16.1 mph N/A   Scattered Clouds
8:14 AM 39.2 °F 32.0 °F 35.6 °F 87% 29.80 in 10.0 mi West 11.5 mph 18.4 mph N/A   Scattered Clouds
8:34 AM 39.2 °F 30.8 °F 35.6 °F 87% 29.81 in 10.0 mi West 15.0 mph 20.7 mph N/A   Clear
8:54 AM 39.2 °F 31.6 °F 35.6 °F 87% 29.82 in 7.0 mi WNW 12.7 mph - N/A   Clear
9:14 AM 39.2 °F 31.6 °F 35.6 °F 87% 29.83 in 7.0 mi WNW 12.7 mph 17.3 mph N/A   Clear
9:34 AM 39.2 °F 32.0 °F 35.6 °F 87% 29.85 in 7.0 mi WNW 11.5 mph - N/A   Scattered Clouds
9:54 AM 39.2 °F 32.5 °F 35.6 °F 87% 29.86 in 5.0 mi WNW 10.4 mph - N/A   Haze
10:14 AM 39.2 °F 32.5 °F 35.6 °F 87% 29.87 in 4.0 mi WNW 10.4 mph 17.3 mph N/A   Haze
10:34 AM 39.2 °F 31.2 °F 35.6 °F 87% 29.89 in 5.0 mi NW 13.8 mph - N/A   Haze
10:54 AM 39.2 °F 30.8 °F 35.6 °F 87% 29.90 in 7.0 mi NW 15.0 mph - N/A   Mostly Cloudy
11:14 AM 39.2 °F 31.2 °F 35.6 °F 87% 29.91 in 7.0 mi NNW 13.8 mph - N/A   Mostly Cloudy
11:34 AM 39.2 °F 31.6 °F 35.6 °F 87% 29.92 in 10.0 mi NNW 12.7 mph - N/A   Mostly Cloudy
11:55 AM 39.2 °F 30.5 °F 35.6 °F 87% 29.93 in 10.0 mi NNW 16.1 mph 21.9 mph N/A   Scattered Clouds
12:14 PM 39.2 °F 30.5 °F 33.8 °F 81% 29.94 in 10.0 mi NNW 16.1 mph 23.0 mph N/A   Scattered Clouds
12:34 PM 39.2 °F 30.8 °F 33.8 °F 81% 29.95 in 10.0 mi NNW 15.0 mph 20.7 mph N/A   Clear
12:54 PM 39.2 °F 29.0 °F 33.8 °F 81% 29.96 in 10.0 mi NNW 21.9 mph 28.8 mph N/A   Scattered Clouds
1:14 PM 39.2 °F 29.6 °F 33.8 °F 81% 29.97 in 10.0 mi North 19.6 mph - N/A   Scattered Clouds
1:34 PM 39.2 °F 29.6 °F 33.8 °F 81% 29.98 in 10.0 mi North 19.6 mph 25.3 mph N/A   Scattered Clouds
1:55 PM 39.2 °F 29.6 °F 33.8 °F 81% 29.99 in 10.0 mi North 19.6 mph - N/A   Scattered Clouds
2:14 PM 39.2 °F 31.2 °F 33.8 °F 81% 30.00 in 10.0 mi North 13.8 mph - N/A   Scattered Clouds
2:34 PM 39.2 °F 30.2 °F 33.8 °F 81% 30.01 in 10.0 mi NNW 17.3 mph 23.0 mph N/A   Scattered Clouds
2:54 PM 39.2 °F 30.8 °F 32.0 °F 75% 30.02 in 10.0 mi North 15.0 mph 21.9 mph N/A   Scattered Clouds
3:14 PM 39.2 °F 31.2 °F 32.0 °F 75% 30.03 in 10.0 mi NNW 13.8 mph - N/A   Scattered Clouds
3:34 PM 37.4 °F 27.2 °F 32.0 °F 81% 30.04 in 10.0 mi NNW 19.6 mph - N/A   Scattered Clouds
3:54 PM 37.4 °F 28.2 °F 32.0 °F 81% 30.05 in 10.0 mi North 16.1 mph - N/A   Scattered Clouds
4:14 PM 37.4 °F 28.2 °F 30.2 °F 75% 30.06 in 10.0 mi North 16.1 mph - N/A   Scattered Clouds
4:34 PM 37.4 °F 28.9 °F 30.2 °F 75% 30.07 in 10.0 mi North 13.8 mph - N/A   Scattered Clouds
4:54 PM 35.6 °F 26.6 °F 30.2 °F 81% 30.08 in 10.0 mi NNW 13.8 mph - N/A   Mostly Cloudy
5:14 PM 35.6 °F 27.1 °F 28.4 °F 75% 30.10 in 10.0 mi North 12.7 mph - N/A   Overcast
5:34 PM 33.8 °F 23.9 °F 28.4 °F 81% 30.10 in 10.0 mi NNW 15.0 mph - N/A   Overcast
5:54 PM 33.8 °F 23.9 °F 26.6 °F 75% 30.12 in 10.0 mi North 15.0 mph 21.9 mph N/A   Overcast
6:14 PM 33.8 °F 23.2 °F 26.6 °F 75% 30.12 in 10.0 mi North 17.3 mph 20.7 mph N/A   Overcast
6:34 PM 32.0 °F 22.1 °F 26.6 °F 80% 30.13 in 10.0 mi North 13.8 mph 18.4 mph N/A   Overcast
6:54 PM 32.0 °F 20.8 °F 26.6 °F 80% 30.13 in 10.0 mi North 17.3 mph - N/A   Overcast
7:14 PM 32.0 °F 23.0 °F 26.6 °F 80% 30.14 in 10.0 mi North 11.5 mph - N/A   Overcast
7:35 PM 32.0 °F 23.6 °F 26.6 °F 80% 30.14 in 10.0 mi North 10.4 mph - N/A   Overcast
7:54 PM 30.2 °F 21.3 °F 26.6 °F 86% 30.15 in 10.0 mi North 10.4 mph - N/A   Overcast
8:14 PM 30.2 °F 21.9 °F 26.6 °F 86% 30.14 in 10.0 mi North 9.2 mph - N/A   Overcast
8:34 PM 30.2 °F 19.3 °F 24.8 °F 80% 30.15 in 10.0 mi NNE 15.0 mph - N/A   Overcast
8:54 PM 30.2 °F 19.3 °F 24.8 °F 80% 30.16 in 10.0 mi NNE 15.0 mph - N/A   Overcast
9:14 PM 30.2 °F 19.8 °F 24.8 °F 80% 30.16 in 10.0 mi North 13.8 mph - N/A   Overcast
9:34 PM 30.2 °F 20.2 °F 24.8 °F 80% 30.16 in 10.0 mi North 12.7 mph - N/A   Overcast
9:54 PM 30.2 °F 19.8 °F 24.8 °F 80% 30.17 in 10.0 mi NNE 13.8 mph - N/A   Mostly Cloudy
10:14 PM 30.2 °F 22.6 °F 24.8 °F 80% 30.18 in 10.0 mi North 8.1 mph - N/A   Overcast
10:34 PM 30.2 °F 21.3 °F 24.8 °F 80% 30.19 in 10.0 mi North 10.4 mph - N/A   Overcast
10:54 PM 30.2 °F 19.8 °F 24.8 °F 80% 30.19 in 10.0 mi North 13.8 mph - N/A   Overcast
11:14 PM 30.2 °F 20.8 °F 24.8 °F 80% 30.19 in 10.0 mi NNE 11.5 mph - N/A   Mostly Cloudy
11:34 PM 30.2 °F 21.9 °F 24.8 °F 80% 30.20 in 10.0 mi NNE 9.2 mph - N/A   Mostly Cloudy
11:54 PM 30.2 °F 24.3 °F 24.8 °F 80% 30.21 in 10.0 mi NNE 5.8 mph - N/A   Overcast